Prague, Czech Republic

9:19 PM CET on February 19, 2018 (GMT +0100)
Ruzyne

Weather History for LKPR - November, 2012

Change the Weather History Date:

Tuesday, November 6, 2012

  Actual Average Record
Temperature  
Mean Temperature 40 °F -  
Max Temperature 44 °F 41 °F 62 °F (2015)
Min Temperature 35 °F 31 °F 21 °F (2002)
Degree Days  
Heating Degree Days 26    
Moisture  
Dew Point 35 °F    
Average Humidity 86    
Maximum Humidity 93    
Minimum Humidity 68    
Precipitation  
Precipitation 0.03 in 0.04 in - ()
Sea Level Pressure  
Sea Level Pressure 29.91 in    
Wind  
Wind Speed 11 mph ()    
Max Wind Speed 17 mph    
Max Gust Speed -    
Visibility 6.7 miles    
Events Rain    
Averages and records for this station are not official NWS values.
T = Trace of Precipitation, MM = Missing Value Source: Averaged Metar Reports

Daily Weather History Graph

Daily Weather History Graph

Search for Another Location

Airport or City:

Trip Planner

Search our weather history database for the weather conditions in past years. The results will help you decide how hot, cold, wet, or windy it might be!

Date:

Astronomy

Nov. 06, 2012 Rise Set
Actual Time 7:01 AM CET 4:30 PM CET
Civil Twilight 6:26 AM CET 5:05 PM CET
Nautical Twilight 5:48 AM CET 5:44 PM CET
Astronomical Twilight 5:10 AM CET 6:21 PM CET
Moon 10:57 PM CET (11/6) 12:41 PM CET (11/6)
Length of Visible Light 10h 38m
Length of Day
9h 29m
Waning Gibbous, 56% of the Moon is Illuminated
Nov 6
Waning Gibbous
Nov 7
Last Quarter
Nov 13
New
Nov 20
First Quarter
Nov 28
Full

Hourly Weather History & Observations

Time (CET) Temp. Windchill Dew Point Humidity Pressure Visibility Wind Dir Wind Speed Gust Speed Precip Events Conditions
12:00 AM 39.2 °F 31.6 °F 37.4 °F 93% 29.74 in 6.2 mi SW 12.7 mph - N/A   Partly Cloudy
12:30 AM 39.2 °F 30.8 °F 37.4 °F 93% 29.71 in - SW 15.0 mph - N/A   Clear
1:00 AM 39 °F - 37 °F 88% 29.78 in 37 mi SW 13.4 mph - -   Partly Cloudy
1:00 AM 39.2 °F 31.6 °F 35.6 °F 87% 29.74 in 6.2 mi SW 12.7 mph - N/A   Scattered Clouds
1:30 AM 41.0 °F 33.9 °F 37.4 °F 87% 29.74 in 6.2 mi SW 12.7 mph - N/A   Scattered Clouds
2:00 AM 41.0 °F 33.9 °F 37.4 °F 87% 29.74 in 6.2 mi SW 12.7 mph - N/A   Partly Cloudy
2:30 AM 41.0 °F 34.3 °F 37.4 °F 87% 29.74 in 6.2 mi SW 11.5 mph - N/A Rain Light Rain
3:00 AM 41.0 °F 34.7 °F 37.4 °F 87% 29.74 in 6.2 mi SSW 10.4 mph - N/A Rain Light Rain
3:30 AM 41.0 °F 34.7 °F 37.4 °F 87% 29.74 in 6.2 mi SSW 10.4 mph - N/A Rain Light Rain
4:00 AM 41.0 °F 35.8 °F 39.2 °F 93% 29.74 in 6.2 mi West 8.1 mph - N/A Rain Light Rain
4:05 AM 39.2 °F 33.0 °F 37.4 °F 93% 29.74 in 4.3 mi NW 9.2 mph - N/A Rain Rain
4:30 AM 37.4 °F 29.8 °F 35.6 °F 93% 29.77 in 5.6 mi WNW 11.5 mph - N/A Rain Rain
4:47 AM 37.4 °F 30.8 °F 33.8 °F 87% 29.77 in 6.2 mi WNW 9.2 mph - N/A Rain Light Rain
5:00 AM 37.4 °F 31.4 °F 35.6 °F 93% 29.77 in 6.2 mi West 8.1 mph - N/A Rain Light Rain
5:30 AM 37.4 °F 30.8 °F 35.6 °F 93% 29.80 in 6.2 mi West 9.2 mph - N/A Rain Light Rain
5:49 AM 37.4 °F 30.3 °F 35.6 °F 93% 29.80 in 6.2 mi WSW 10.4 mph - N/A   Scattered Clouds
6:00 AM 37.4 °F 30.8 °F 35.6 °F 93% 29.80 in 6.2 mi WSW 9.2 mph - N/A   Partly Cloudy
6:30 AM 37.4 °F 30.3 °F 35.6 °F 93% 29.80 in 6.2 mi WSW 10.4 mph - N/A   Mostly Cloudy
7:00 AM 37 °F - 35 °F 90% 29.88 in 22 mi West 11.2 mph - -   Partly Cloudy
7:00 AM 37.4 °F 29.8 °F 35.6 °F 93% 29.83 in 6.2 mi WSW 11.5 mph - N/A   Mostly Cloudy
7:30 AM 37.4 °F 29.8 °F 35.6 °F 93% 29.86 in 6.2 mi WSW 11.5 mph - N/A   Mostly Cloudy
8:00 AM 37.4 °F 30.3 °F 35.6 °F 93% 29.86 in 6.2 mi WSW 10.4 mph - N/A   Mostly Cloudy
8:30 AM 37.4 °F 30.3 °F 35.6 °F 93% 29.89 in 6.2 mi WSW 10.4 mph - N/A   Mostly Cloudy
9:00 AM 39.2 °F 31.6 °F 35.6 °F 87% 29.89 in 6.2 mi WSW 12.7 mph - N/A   Mostly Cloudy
9:30 AM 39.2 °F 31.2 °F 35.6 °F 87% 29.89 in 6.2 mi WSW 13.8 mph - N/A   Mostly Cloudy
10:00 AM 39.2 °F 31.2 °F 35.6 °F 87% 29.89 in 6.2 mi WSW 13.8 mph - N/A   Partly Cloudy
10:30 AM 41.0 °F 33.1 °F 35.6 °F 81% 29.92 in 6.2 mi WSW 15.0 mph - N/A   Partly Cloudy
11:00 AM 42.8 °F 35.8 °F 35.6 °F 76% 29.92 in 6.2 mi SW 13.8 mph - N/A   Scattered Clouds
11:30 AM 42.8 °F 35.4 °F 35.6 °F 76% 29.92 in 6.2 mi WSW 15.0 mph - N/A   Mostly Cloudy
12:00 PM 42.8 °F 35.4 °F 35.6 °F 76% 29.95 in 6.2 mi SW 15.0 mph - N/A   Mostly Cloudy
12:30 PM 42.8 °F 35.1 °F 35.6 °F 76% 29.95 in 6.2 mi WSW 16.1 mph - N/A   Mostly Cloudy
1:00 PM 43 °F - 36 °F 68% 29.98 in 19 mi WSW 15.7 mph - -   Mostly Cloudy
1:00 PM 42.8 °F 35.1 °F 35.6 °F 76% 29.95 in 6.2 mi WSW 16.1 mph - N/A   Mostly Cloudy
1:30 PM 44.6 °F 37.8 °F 37.4 °F 76% 29.95 in 6.2 mi WSW 15.0 mph - N/A   Mostly Cloudy
1:39 PM 44.6 °F 37.2 °F 35.6 °F 71% 29.95 in 6.2 mi WSW 17.3 mph - N/A Rain Light Rain Showers
2:00 PM 42.8 °F 36.2 °F 35.6 °F 76% 29.95 in 6.2 mi WSW 12.7 mph - N/A Rain Light Rain Showers
2:30 PM 42.8 °F 35.1 °F 35.6 °F 76% 29.95 in 6.2 mi West 16.1 mph - N/A   Mostly Cloudy
3:00 PM 42.8 °F 35.1 °F 35.6 °F 76% 29.98 in 6.2 mi West 16.1 mph - N/A   Mostly Cloudy
3:30 PM 42.8 °F 36.2 °F 35.6 °F 76% 29.98 in 6.2 mi West 12.7 mph - N/A   Partly Cloudy
3:53 PM 41.0 °F 34.3 °F 35.6 °F 81% 29.98 in 6.2 mi West 11.5 mph - N/A Rain Light Rain Showers
4:00 PM 41.0 °F 33.9 °F 35.6 °F 81% 29.98 in 6.2 mi West 12.7 mph - N/A Rain Light Rain Showers
4:05 PM 39.2 °F 31.2 °F 35.6 °F 87% 30.01 in 6.2 mi WNW 13.8 mph - N/A Rain Rain Showers
4:14 PM 39.2 °F 32.0 °F 35.6 °F 87% 29.98 in 6.2 mi WNW 11.5 mph - N/A Rain Light Rain Showers
4:23 PM 39.2 °F 33.6 °F 35.6 °F 87% 29.98 in 6.2 mi West 8.1 mph - N/A   Mostly Cloudy
4:30 PM 39.2 °F 34.2 °F 35.6 °F 87% 30.01 in 6.2 mi West 6.9 mph - N/A   Mostly Cloudy
4:41 PM 39.2 °F 33.6 °F 35.6 °F 87% 30.01 in 6.2 mi West 8.1 mph - N/A Rain Light Rain Showers
4:53 PM 39.2 °F 33.6 °F 35.6 °F 87% 30.01 in 6.2 mi West 8.1 mph - N/A   Mostly Cloudy
5:00 PM 39.2 °F 33.6 °F 35.6 °F 87% 30.01 in 6.2 mi West 8.1 mph - N/A   Mostly Cloudy
5:30 PM 39.2 °F 34.2 °F 35.6 °F 87% 30.01 in 6.2 mi West 6.9 mph - N/A   Mostly Cloudy
6:00 PM 39.2 °F 33.0 °F 35.6 °F 87% 30.04 in 6.2 mi WSW 9.2 mph - N/A   Mostly Cloudy
6:30 PM 37.4 °F 30.8 °F 35.6 °F 93% 30.04 in 6.2 mi WSW 9.2 mph - N/A   Mostly Cloudy
7:00 PM 37 °F - 34 °F 85% 30.09 in 19 mi WSW 8.9 mph - -   Partly Cloudy
7:00 PM 37.4 °F 29.8 °F 33.8 °F 87% 30.04 in 6.2 mi WSW 11.5 mph - N/A   Partly Cloudy
7:30 PM 35.6 °F 27.1 °F 33.8 °F 93% 30.04 in - WSW 12.7 mph - N/A   Clear
8:00 PM 35.6 °F 28.0 °F 32.0 °F 87% 30.04 in - WSW 10.4 mph - N/A   Clear
8:30 PM 35.6 °F 27.5 °F 33.8 °F 93% 30.04 in - SW 11.5 mph - N/A   Clear
9:00 PM 37.4 °F 29.3 °F 33.8 °F 87% 30.06 in - SW 12.7 mph - N/A   Clear
9:30 PM 35.6 °F 25.9 °F 33.8 °F 93% 30.06 in - SW 16.1 mph - N/A   Clear
10:00 PM 35.6 °F 25.9 °F 32.0 °F 87% 30.06 in - SW 16.1 mph - N/A   Clear
10:30 PM 35.6 °F 26.2 °F 32.0 °F 87% 30.06 in - SW 15.0 mph - N/A   Clear
11:00 PM 35.6 °F 26.2 °F 32.0 °F 87% 30.06 in - SW 15.0 mph - N/A   Clear
11:30 PM 37.4 °F 27.8 °F 33.8 °F 87% 30.06 in - SW 17.3 mph - N/A   Clear